Flag for U.S.A. Weather past 2 weeks in Columbus, Georgia, U.S.A.

Now
55 °F

Sunny.


Feels Like: 55 °F
Forecast: 33 / 61 °F
Wind: No wind

Location: Columbus Metropolitan Airport

Current Time: Dec 18, 2014 at 12:51:29 PM

Latest Report: Dec 18, 2014 at 11:51 AM


Visibility: 10 mi

Pressure: 30.16 "Hg

Humidity: 39%

Dew point: 30 °F

Location of ColumbusLocation

Historic Weather in Columbus — Graph

°F

Columbus temperature yesterday

Maximum temperature yesterday: 61 °F (at 3:51 PM)
Minimum temperature yesterday: 37 °F (at 6:51 AM)
Average temperature yesterday: 48 °F

Past Weeks' High & Low Weather Summary

 TemperatureHumidityPressure
High76 °F (Dec 4, 1:51 PM)100% (Dec 6, 4:51 AM)30.36 "Hg (Dec 6, 4:51 AM)
Low32 °F (Dec 11, 5:51 AM)15% (Dec 12, 3:51 PM)29.98 "Hg (Dec 16, 4:51 AM)
Average51 °F66%30.18 "Hg
* Reported Dec 3 10:51 AM — Dec 18 10:51 AM, Columbus, Weather by CustomWeather, © 2014

Note: Actual official high and low records may vary slightly from our data, if they occured in-between our weather recording intervals... More about our weather records

Advertising

Columbus weather history for previous 24 hours

 ConditionsComfort  
Time TempWeatherWind HumidityBarometerVisibility
10:51 AM
Dec 18
50 °FSunny.No wind50%30.21 "Hg10 mi
9:51 AM46 °FSunny.5 mph61%30.21 "Hg10 mi
8:51 AM40 °FSunny.5 mph80%30.21 "Hg10 mi
7:51 AM39 °FSunny.6 mph86%30.19 "Hg10 mi
6:51 AM39 °FClear.6 mph86%30.18 "Hg10 mi
5:51 AM39 °FClear.3 mph86%30.16 "Hg10 mi
4:51 AM39 °FClear.3 mph89%30.14 "Hg10 mi
3:51 AM39 °FClear.5 mph89%30.15 "Hg10 mi
2:51 AM39 °FClear.3 mph89%30.15 "Hg10 mi
1:51 AM40 °FClear.5 mph86%30.15 "Hg10 mi
12:51 AM41 °FClear.5 mph82%30.16 "Hg10 mi
11:51 PM
Dec 17
42 °FClear.No wind79%30.16 "Hg10 mi
10:51 PM43 °FClear.3 mph79%30.17 "Hg10 mi
9:51 PM45 °FClear.8 mph76%30.18 "Hg10 mi
8:51 PM47 °FClear.7 mph74%30.18 "Hg10 mi
7:51 PM50 °FClear.5 mph68%30.18 "Hg10 mi
6:51 PM52 °FClear.3 mph64%30.17 "Hg10 mi
5:51 PM55 °FClear.3 mph55%30.15 "Hg10 mi
4:51 PM58 °FSunny.8 mph47%30.13 "Hg10 mi
3:51 PM61 °FSunny.7 mph42%30.13 "Hg10 mi
2:51 PM60 °FSunny.6 mph44%30.13 "Hg10 mi
1:51 PM58 °FSunny.9 mph47%30.15 "Hg10 mi
12:51 PM56 °FSunny.9 mph49%30.18 "Hg10 mi
Weather by CustomWeather, © 2014

See weather overviewHow to use our weather pages